ChubuSat-3 (41339 NORAD) Tracking and Keplerian Element Data

This shows tracking and keplerian element data for the satellite.

Feedback or suggestion? Click here.




ElementValue
Catalog41339
NameChubuSat-3
Epoch Orbit37055
Epoch Day321.80295097
Epoch Year2022
RAAN123.9925
Inclination31.0092
Eccentricity0.0012765
Argument of Perigee245.2007
Mean Anonmoly114.7284
Mean Motion15.02065279
Decay Rate2.493E-05
L11 41339U 16012C 22321.80295097 .00002493 00000-0 17872-3 0 9996
L22 41339 31.0092 123.9925 0012765 245.2007 114.7284 15.02065279370553



Live tracking and technical data element details for ChubuSat-3 (NORAD 41339). ChubuSat-3 can be tracked NOW for your location showing map with azimuth and elevation plus other details from your city location.







IsCatalogInMostPopularTable: catalog: 41339, numindb: 475
Update: records affected: 1



GetName: 41339 ChubuSat-3

Hit Count: updated at: Fri, 02 Dec 2022 13:05:58 GMT